Location: Chiroubles
(46.1812°N, 4.6660°E)
Time: 00:22:25
(UTC+00:00)

Cosmos 1725 Rocket - Pass Details

Date: 15 August 2020
Orbit: 961 x 991 km, 82.9° (Epoch: 19 September)

Event Time Altitude Azimuth Distance (km) Brightness Sun altitude
Exits shadow 21:55:18 54° 180° (S) 1,189 4.1 -25.2°
Maximum altitude 21:56:53 86° 97° (E) 1,000 3.9 -25.3°
Drops below altitude 10° 22:03:15 10° 10° (N) 2,765 7.0 -25.9°
Sets 22:05:47 0° 10° (N) 3,717 7.8 -26.1°
